Location: Unspecified
(0.0000°N, 0.0000°E)
Time: 18:47:42
(UTC+00:00)

Tiangong 1 - Pass Details

Date: 22 November 2017
Orbit: 285 x 308 km, 42.8° (Epoch: 20 November)

Event Time Altitude Azimuth Distance (km) Brightness Sun altitude
Exits shadow 05:03:18 10° 248° (WSW) 1,118 3.0 -10.0°
Maximum altitude 05:04:18 12° 224° (SW) 1,035 3.0 -9.8°
Drops below altitude 10° 05:05:21 10° 200° (SSW) 1,133 3.5 -9.6°
Sets 05:08:10 0° 164° (SSE) 1,960 5.2 -8.9°
